Location: Boissay
(47.6279°N, 1.4746°W)
Time: 21:42:19
(UTC+00:00)

Daily predictions for brighter satellites

Satellite Brightness Start Highest point End
(mag) Time Altitude Azimuth Time Altitude Azimuth Time Altitude Azimuth
FALCON 9 R/B 4.4 18:43:04 10° S 18:45:24 12° SSE 18:48:47 10° SE
COSMO-SKYMED 1 3.6 18:46:16 10° N 18:50:31 52° WNW 18:54:43 10° SSW
Cosmos 1707 2.7 18:49:52 10° N 18:53:38 57° ENE 18:57:21 10° SSE
CZ-4B R/B 3.3 18:48:16 10° SSE 18:53:55 72° ENE 18:59:32 10° NNW
Cosmos 2322 3.8 18:48:38 10° NNW 18:54:18 66° ENE 18:59:55 10° SE
Cosmos 1727 Rocket 4.0 18:48:47 10° S 18:55:05 76° E 19:01:22 10° NNE
Okean 1-7 3.1 18:50:47 10° N 18:55:06 55° ENE 18:59:22 10° SSE
Cosmos 1954 Rocket 4.0 18:50:19 10° NNW 18:55:35 72° ENE 19:00:50 10° SSE
Lacrosse 5 rocket 3.3 18:55:34 10° SE 18:57:04 12° ESE 18:58:33 10° ESE
Cosmos 1674 2.8 18:54:23 10° N 18:58:01 50° ENE 19:01:39 10° SSE
Cosmos 2219 Rocket 2.3 18:55:14 10° NNW 19:00:58 90° WSW 19:06:39 10° SSE
Cosmos 1933 Rocket 3.7 18:58:05 10° S 19:02:15 50° E 19:06:28 10° NNE
Cosmos 1975 3.3 18:58:43 10° SSE 19:02:22 38° E 19:06:04 10° NNE
Cosmos 2333 Rocket 2.9 18:57:14 10° NNW 19:02:56 61° WSW 19:08:35 10° S
SJ-6B 3.3 18:59:42 10° SE 19:03:21 38° ENE 19:06:56 10° N
CZ-4C R/B 4.2 19:01:44 10° N 19:05:27 55° WNW 19:09:19 10° SSW
USA 308 4.3 19:02:30 10° WNW 19:05:48 29° SW 19:09:04 10° SSE
Meteor 2-9 Rocket 4.1 19:00:49 10° S 19:06:19 84° E 19:11:44 10° NNE
Cosmos 1726 3.4 19:04:58 10° SE 19:07:31 19° E 19:10:04 10° NE
MOS 1-B 4.5 19:03:21 10° SSE 19:09:09 86° WSW 19:15:00 10° NNW
USA 267 3.9 19:04:39 10° SE 19:11:05 56° SW 19:17:32 10° WNW
BREEZE-M DEB (TANK) 3.4 19:06:35 10° WNW 19:11:17 36° SW 19:13:37 10° SSE
Cosmos 1869 Rocket 4.2 19:08:05 10° SSE 19:11:57 33° E 19:15:51 10° NNE
Cosmos 2061 Rocket 4.5 19:05:59 10° N 19:12:05 42° ENE 19:18:07 10° SE
Cosmos 1900 4.4 19:07:26 10° SSW 19:12:16 57° ESE 19:17:06 10° NE
COSMOS 2428 2.7 19:08:19 10° NNW 19:14:03 72° ENE 19:19:47 10° SE
SL-14 R/B 4.2 19:13:10 10° NNE 19:16:30 27° ENE 19:19:24 12° SE
Cosmos 1459 Rocket 3.9 19:13:20 10° N 19:19:26 82° E 19:25:30 10° S
Cosmos 2297 Rocket 3.2 19:15:48 10° SSE 19:20:02 22° ESE 19:24:18 10° NE
NOSS 3-2 (A) 4.1 19:14:01 10° NW 19:21:26 79° NE 19:30:05 10° SE
USA 281 3.5 19:15:08 10° NNE 19:21:42 74° WNW 19:28:14 10° SW
Cosmos 1867 4.2 19:18:33 10° S 19:23:20 32° ESE 19:28:08 10° NE
IGS 5A 3.5 19:22:15 10° SSE 19:26:23 84° WSW 19:30:32 10° NNW
Resurs 01 Rocket 2.7 19:25:55 16° ESE 19:28:33 27° ENE 19:32:18 10° N
Cosmos 1725 Rocket 4.0 19:23:08 10° N 19:29:16 62° ENE 19:35:24 10° SSE
Cosmos 1371 Rocket 4.5 19:24:33 10° SSW 19:29:48 65° WNW 19:35:02 10° NNE
MINOTAUR 4 R/B 4.0 19:26:48 10° NNE 19:30:15 81° WNW 19:33:39 10° SSW
CZ-4C R/B 4.1 19:25:27 10° NNW 19:30:49 26° NNE 19:36:50 11° ENE
JB-3 4.5 19:27:02 10° N 19:31:06 82° WNW 19:35:10 10° SSW
NOSS 3-2 (C) 4.2 19:24:41 10° NW 19:31:54 60° NE 19:38:47 16° ESE
CENTAUR R/B 3.3 19:23:45 10° NW 19:31:57 89° SW 19:41:04 10° SE
Cosmos 1733 3.3 19:28:23 10° S 19:32:01 49° E 19:35:41 10° NNE
Cosmos 2360 Rocket 4.4 19:28:08 10° NW 19:32:42 26° WSW 19:37:15 10° SSW
Cosmos 1626 3.2 19:29:31 10° NNW 19:32:57 45° W 19:36:21 10° SSW
Landsat 7 3.7 19:28:36 10° SSE 19:33:16 70° ENE 19:37:59 10° N
Cosmos 1818 4.1 19:29:57 10° NW 19:35:19 58° WSW 19:40:38 10° SSE
Cosmos 2227 Rocket 3.4 19:35:04 18° ESE 19:35:57 18° E 19:39:43 10° ENE
CZ-4 R/B 2.3 19:33:39 10° S 19:37:21 48° W 19:41:08 10° NNW
Cosmos 1703 Rocket 4.0 19:32:59 10° NNW 19:37:26 65° W 19:41:47 10° S
Cosmos 2056 Rocket 4.1 19:33:10 10° SW 19:38:13 58° WNW 19:43:17 10° NNE
Cosmos 192 4.3 19:36:57 10° S 19:41:49 62° ESE 19:46:44 10° NNE
Cosmos 2098 Rocket 3.7 19:36:50 10° S 19:42:08 78° E 19:48:37 10° N
Iridium 4 Rocket 2.9 19:38:55 10° N 19:43:06 65° E 19:47:13 10° SSE
Geosat 4.2 19:40:50 19° SE 19:44:17 53° NE 19:49:10 10° NNW
USA 238 DEB 4.1 19:38:24 10° NW 19:45:33 58° NE 19:50:50 21° ESE
USA 238 4.1 19:38:31 10° NW 19:45:38 57° NE 19:50:55 21° ESE
Resurs 1-3 3.5 19:41:23 10° SSE 19:45:44 82° ENE 19:50:08 10° NNW
Cosmos 1802 Rocket 4.1 19:39:31 10° N 19:45:47 82° W 19:52:07 10° S
SL-16 R/B 3.6 19:42:43 10° N 19:47:13 23° NE 19:49:39 18° ENE
Cosmos 1850 Rocket 4.0 19:47:48 10° NNW 19:53:10 78° ENE 19:57:17 17° SSE
Meteor 2-10 3.8 19:48:18 10° S 19:53:18 75° E 19:58:24 10° NNE
Cosmos 1733 Rocket 3.7 19:53:01 28° ESE 19:54:09 33° E 19:58:01 10° NNE
Okean-O 2.5 19:52:20 15° SSE 19:56:00 75° ENE 20:00:26 10° N
Okean 2 3.3 19:54:39 10° N 19:58:45 88° W 20:02:15 14° S
Cosmos 2016 Rocket 4.1 19:52:59 10° NNW 19:59:05 78° W 20:05:12 10° S
CARTOSAT-1 4.3 19:58:45 30° E 19:59:38 34° ENE 20:03:31 10° N
SPOT 1/Viking Rocket 3.5 19:55:57 18° SSE 19:59:44 64° ENE 20:04:55 10° N
NOSS 0 Rocket 4.0 19:53:50 10° NNW 20:00:04 83° WSW 20:05:06 16° SSE
Cosmos 1110 Rocket 4.0 19:55:39 10° S 20:00:43 56° ESE 20:05:48 10° NNE
Cosmos 2123 Rocket 4.1 19:56:25 10° SSW 20:02:42 80° W 20:09:05 10° N
SPOT 5 4.3 20:02:23 20° ENE 20:02:43 20° ENE 20:06:10 10° NNE
Cosmos 1378 Rocket 4.3 19:59:40 10° N 20:03:39 32° ENE 20:04:03 31° E
Okean O Rocket 3.3 20:00:22 10° SSW 20:04:23 34° W 20:08:26 10° NNW
Cosmos 2221 Rocket 4.1 20:00:37 10° N 20:04:45 37° ENE 20:05:26 35° E
SL-4 R/B 4.4 20:01:51 10° S 20:02:30 12° S 20:02:30 12° S
Helios 1B 4.4 20:02:32 10° NNE 20:06:54 83° ESE 20:11:13 10° SSW
Cosmos 2242 Rocket 4.3 20:02:57 10° NNW 20:07:27 56° W 20:11:53 10° S
BREEZE-M DEB (TANK) 2.9 20:01:31 10° W 20:07:32 70° N 20:08:22 44° ENE
ISS -2.7 20:04:31 10° WNW 20:07:42 39° N 20:08:42 31° NE
CSL-04 Rocket 4.1 20:07:13 10° S 20:12:44 65° WSW 20:18:15 10° NNW
Cosmos 1447 Rocket 4.5 20:09:36 10° S 20:15:41 60° E 20:21:46 10° NNE
Cosmos 1452 Rocket 3.5 20:10:29 10° SSW 20:15:45 84° WNW 20:21:05 10° NNE
USA 186 3.7 20:13:48 10° SSW 20:16:30 27° W 20:19:15 10° NW
ADEOS Rocket 4.2 20:15:26 25° E 20:17:11 28° ENE 20:22:54 10° N
USA 215 4.2 20:11:22 10° NE 20:17:29 44° NNW 20:23:36 10° W
Cosmos 1766 3.2 20:17:38 56° E 20:17:38 56° E 20:21:14 10° NNE
Cosmos 1331 Rocket 3.8 20:12:34 10° SSW 20:17:40 71° ESE 20:22:50 10° NNE
Cosmos 2237 Rocket 2.1 20:16:49 10° NNW 20:22:30 88° WSW 20:25:11 33° SSE
H-2A R/B 3.4 20:23:55 35° ENE 20:23:55 35° ENE 20:27:47 10° N
MetOp-B 4.2 20:29:52 46° ESE 20:31:04 56° ENE 20:36:18 10° N
ATLAS CENTAUR R/B 4.3 20:14:59 10° SW 20:31:45 89° NW 20:39:23 10° NE
IRS-1C Rocket 4.5 20:31:12 19° S 20:34:55 63° WSW 20:40:11 10° NNW
Lacrosse 5 rocket 1.6 20:31:02 10° SW 20:34:35 55° SSW 20:34:35 55° SSW
Cosmos 968 Rocket 3.3 20:31:12 10° NNW 20:36:24 77° ENE 20:37:26 56° SE
SJ 16-02 3.1 20:33:46 10° N 20:36:14 19° NE 20:36:14 19° NE
Meteor 1-12 Rocket 4.3 20:38:17 48° SE 20:39:24 56° E 20:44:59 10° NNE
Cosmos 1726 4.0 20:38:52 10° SW 20:41:57 28° WNW 20:45:04 10° NNW
FALCON 9 R/B 3.9 20:22:35 10° WSW 20:42:22 40° SSW 20:45:16 32° SSE
Cosmos 1980 4.1 20:38:12 10° NW 20:43:46 59° WSW 20:46:16 32° S
ERS-1 Rocket 3.7 20:44:49 36° NE 20:44:49 36° NE 20:48:58 10° N
Cosmos 1513 Rocket 4.4 20:40:28 10° N 20:46:31 66° ENE 20:47:45 53° SE
Meteor 1-24 Rocket 3.9 20:40:50 10° N 20:46:39 55° ENE 20:47:15 52° E
BREEZE-M DEB (TANK) 3.0 20:43:27 10° WNW 20:50:00 76° NNE 20:50:42 62° E
Ariane Rocket 2.9 20:49:52 65° E 20:50:03 66° ENE 20:55:06 10° N
Meteor 2-15 4.4 20:44:44 10° N 20:50:52 65° ENE 20:51:49 57° ESE
Landsat 5 4.2 20:47:41 10° N 20:51:25 48° WNW 20:53:41 22° SW
Meteor 2-8 Rocket 4.4 20:46:33 10° N 20:52:38 61° ENE 20:53:21 57° ESE
Meteor 2-15 Rocket 4.5 20:50:42 10° N 20:56:46 56° ENE 20:57:03 55° E
Spot 2 Rocket 4.0 21:01:36 47° NE 21:01:36 47° NE 21:05:52 10° N
Cosmos 1302 Rocket 3.9 21:02:14 81° ENE 21:02:14 81° ENE 21:07:24 10° NNE
Cosmos 2297 Rocket 2.5 20:57:58 10° SW 21:03:35 64° WNW 21:09:13 10° NNE
Resurs 01 Rocket 3.0 21:03:27 28° SW 21:04:55 35° W 21:08:59 10° NNW
Cosmos 1867 4.4 21:01:26 10° WSW 21:06:43 51° NW 21:12:04 10° NNE
Cosmos 2034 Rocket 4.1 21:01:57 10° N 21:07:51 56° ENE 21:07:51 56° ENE
Cosmos 1271 Rocket 4.3 21:11:49 31° NNW 21:11:49 31° NNW 21:14:03 10° N
Cosmos 2219 3.9 21:13:55 40° NE 21:13:55 40° NE 21:17:27 10° NNE
SPOT 3 Rocket 3.6 21:12:40 70° NNE 21:12:40 70° NNE 21:17:27 10° NNW
Meteor 2-5 Rocket 3.7 21:08:16 10° NNW 21:14:07 88° WSW 21:14:30 79° S
ATLAS 3B R/B 4.3 21:08:01 10° NW 21:14:15 28° NNE 21:17:41 20° ENE
Cosmos 2227 Rocket 2.2 21:13:40 10° SSW 21:19:19 77° WNW 21:25:01 10° NNE
Terra 2.8 21:21:29 39° N 21:21:29 39° N 21:24:37 10° N
CZ-4C R/B 3.1 21:13:45 10° NW 21:20:41 61° NE 21:21:59 54° E
SL-16 R/B 2.3 21:26:17 10° NNW 21:31:32 72° WNW 21:31:32 72° WNW
SPOT 5 3.9 21:41:34 43° NW 21:41:34 43° NW 21:45:04 10° NNW
ISS -0.3 21:41:27 10° WNW 21:41:38 11° WNW 21:41:38 11° WNW
USA 215 4.2 21:57:51 34° NE 21:59:43 41° N 22:05:44 10° WNW
ADEOS Rocket 3.4 22:02:22 66° W 22:02:22 66° W 22:09:01 10° NNW
Cosmos 2237 Rocket 4.5 22:02:47 10° WNW 22:05:42 14° W 22:07:02 13° WSW
Cosmos 2263 Rocket 4.4 22:13:19 16° NNE 22:13:19 16° NNE 22:14:23 10° NNE
SJ 16-02 3.8 22:11:36 10° NNW 22:13:07 21° NW 22:13:07 21° NW
ATLAS CENTAUR R/B 4.4 22:36:30 10° W 22:47:31 43° NNW 22:49:44 34° NNE
ATLAS 3B R/B 3.5 22:58:58 10° NW 23:04:56 53° N 23:04:56 53° N
CZ-4C R/B 4.0 23:02:23 10° NW 23:07:09 37° W 23:07:09 37° W
Cosmos 2344 4.1 23:10:46 10° NW 23:18:49 79° N 23:18:49 79° N
Cosmos 2263 Rocket 4.4 23:54:56 20° NNW 23:54:56 20° NNW 23:57:41 10° N
